User: anonymous   Login
Location: Unspecified
(0.0000°N, 0.0000°E)
Time: 19:56:48
(UTC+00:00)
Language:

FORMOSAT 3B - Orbit

View from above orbital plane
View from above orbital plane
View from above satellite
View from above satellite

Ground track
Ground track

The orbit data is extracted from the following two-line orbital elements,

1 29048U 06011B   18017.16278238  .00000013  00000-0  21250-4 0  9993
2 29048  71.9671  22.4866 0041314 100.1046 260.4755 14.28554800617807
Epoch (UTC): 17 January 2018 03:54:24
Eccentricity: 0.0041314
inclination: 71.9671°
perigee height: 767 km
apogee height: 826 km
right ascension of ascending node: 22.4866°
argument of perigee: 100.1046°
revolutions per day: 14.28554800
mean anomaly at epoch: 260.4755°
orbit number at epoch: 61780

The dashed part of the orbit path shows where the satellite is in the earth's shadow,  

DLR